[[{"header":{"parameterUnit":"m.s-1","parameterCategory":1,"la1":30.2991,"la2":30.254,"lo1":-89.0895,"lo2":-89.0444,"dy":0.0017,"dx":0.0017,"nx":28,"ny":28,"refTime":"2024-03-10T09:00:00:Z","depth":0,"parameterNumber":2,"parameterNumberName":"U-component_of_WINDS"},"data":[0,0,0,0,0,0,0,0,0,0,0,0,0,0,0,0,0,0,0,0,0,0,0,0,0,0,0,0,0,0,0,0,0,0,0,0,0,0,0,0,0,0,0,0,0,0,0,0,0,0,0,0,0,0,0,0,0,0,-2.1208,-2.1208,0,-2.1206,-2.1205,-2.1205,-2.1103,-2.1101,-2.1098,-2.1095,-2.1093,-2.1096,-2.1098,0,0,0,0,0,0,0,0,0,0,0,0,0,-2.1126,-2.1128,-2.1208,-2.1208,-2.1208,-2.1206,-2.1205,-2.1205,-2.1104,-2.1101,-2.1097,-2.1094,-2.1092,-2.1095,-2.1098,0,0,0,0,0,0,0,0,0,0,0,0,0,-2.1146,-2.1128,-2.1208,-2.1157,-2.1152,-2.1206,-2.1205,-2.1205,-2.1104,-2.11,-2.1096,-2.1093,-2.1091,-2.1095,-2.1099,-2.12,0,0,-2.111,-2.1111,0,0,0,0,0,0,0,0,-2.1145,-2.1149,-2.1164,-2.1161,-2.1155,-2.1151,-2.1175,-2.1204,-2.1105,-2.1123,-2.1095,-2.1091,-2.1116,-2.1117,-2.1125,-2.12,-2.12,-2.111,-2.1112,-2.1114,-2.1115,0,0,0,0,0,0,0,-2.1144,-2.1149,-2.1207,-2.1165,-2.1159,-2.1134,-2.1133,-2.118,-2.1141,-2.1121,-2.1113,-2.1115,-2.1112,-2.1122,-2.1124,-2.12,-2.111,-2.1113,-2.1115,-2.1117,-2.136,-2.1364,0,0,0,0,0,0,-2.1149,-2.1148,-2.1207,-2.1207,-2.114,-2.1139,-2.1137,-2.1156,-2.1141,-2.1134,-2.1118,-2.111,-2.1118,-2.112,-2.1124,-2.1243,-2.1114,-2.1117,-2.1119,-2.1356,-2.1361,-2.1366,0,0,0,0,0,0,-2.1148,-2.1156,-2.1207,-2.1176,-2.118,-2.1145,-2.1167,-2.1158,-2.1168,-2.1138,-2.1131,-2.1135,-2.1115,-2.1119,-2.1182,-2.1242,-2.1119,-2.1122,-2.1351,-2.1358,-2.1364,-2.1482,0,0,0,0,0,0,-2.1146,-2.1156,-2.1194,-2.1177,-2.1182,-2.1266,-2.117,-2.1161,-2.1174,-2.1164,-2.1152,-2.1147,-2.1112,-2.1178,-2.1186,-2.1244,-2.1125,-2.1346,-2.1354,-2.1362,-2.1473,-2.1492,-2.1508,0,0,0,0,0,-2.1144,-2.1227,-2.1196,-2.1204,-2.1229,-2.1269,-2.1272,-2.123,-2.1179,-2.1218,-2.1199,-2.1147,-2.1234,-2.1185,-2.1194,-2.1254,-2.1342,-2.1352,-2.1361,-2.1465,-2.1488,-2.1508,0,0,0,0,0,0,-2.1251,-2.1224,-2.1189,-2.127,-2.1273,-2.1252,-2.1299,-2.1256,-2.1274,-2.1263,-2.121,-2.1209,-2.1281,-2.1273,-2.122,-2.1352,-2.1279,-2.1291,-2.1355,-2.1377,-2.1394,-2.1394,-2.1128,0,0,0,0,0,-2.1284,-2.1319,-2.1293,-2.1367,-2.137,-2.1335,-2.135,-2.1318,-2.1319,-2.132,-2.1306,-2.1309,-2.1337,-2.1356,-2.138,-2.1471,-2.1468,-2.1517,-2.1535,-2.1549,-2.156,-2.1609,-2.1631,-2.1398,-2.1398,-2.1398,0,0,-2.1352,-2.1342,-2.1367,-2.1388,-2.1386,-2.1424,-2.1336,-2.1379,-2.1407,-2.1326,-2.1386,-2.1376,-2.1376,-2.1454,-2.1488,-2.145,-2.1624,-2.1562,-2.1574,-2.1577,-2.1622,-2.1644,-2.1664,-2.1404,-2.1403,-2.1402,0,0,-2.1497,-2.1492,-2.1553,-2.1554,-2.1553,-2.1529,-2.1544,-2.153,-2.1521,-2.158,-2.152,-2.1553,-2.1602,-2.1604,-2.1612,-2.176,-2.1713,-2.1769,-2.1862,-2.191,-2.1928,-2.1944,-2.1998,-2.2018,-2.178,-2.178,-2.1781,0,-2.1582,-2.1636,-2.159,-2.1638,-2.1649,-2.1579,-2.1641,-2.1644,-2.1651,-2.1661,-2.1618,-2.1679,-2.1674,-2.1753,-2.1789,-2.1797,-2.1813,-2.177,-2.1929,-2.1945,-2.1959,-2.201,-2.203,-2.1787,-2.1787,-2.1786,-2.1785,0,-2.1742,-2.178,-2.183,-2.1839,-2.1856,-2.1911,-2.1874,-2.1897,-2.1864,-2.1845,-2.1907,-2.1898,-2.192,-2.1936,-2.1904,-2.2011,-2.1988,-2.1939,-2.1863,-2.1989,-2.2036,-2.2055,-2.1797,-2.1795,-2.1793,-2.1791,0,0,-2.1952,-2.1937,-2.1956,-2.196,-2.1954,-2.1984,-2.2036,-2.2057,-2.2078,-2.2086,-2.2129,-2.2173,-2.2128,-2.2137,-2.2104,-2.2147,-2.2266,-2.2092,-2.2091,-2.2126,-2.2385,-2.2422,-2.2445,-2.2235,-2.2238,-2.2241,-2.2385,0,-2.2093,-2.2181,-2.2142,-2.2234,-2.227,-2.2204,-2.2249,-2.2252,-2.2236,-2.2264,-2.2246,-2.2279,-2.2216,-2.2221,-2.226,-2.2243,-2.2317,-2.2232,-2.2275,-2.2277,-2.2277,-2.247,-2.2509,-2.2645,-2.2403,-2.2406,-2.2408,0,-2.2267,-2.2283,-2.238,-2.2369,-2.2383,-2.2424,-2.2442,-2.247,-2.2471,-2.2457,-2.2468,-2.2426,-2.2477,-2.2403,-2.2473,-2.2416,-2.2432,-2.2426,-2.243,-2.2433,-2.235,-2.2478,-2.2687,-2.2708,-2.2436,-2.2434,-2.2432,0,-2.2413,-2.2458,-2.2522,-2.2527,-2.2516,-2.2547,-2.2544,-2.2542,-2.2558,-2.2573,-2.2583,-2.2605,-2.2616,-2.2634,-2.26,-2.2548,-2.2675,-2.2598,-2.2665,-2.2666,-2.2695,-2.2694,-2.291,-2.2704,-2.2704,-2.2704,-2.2703,0,-2.2574,-2.2635,-2.2587,-2.2626,-2.2694,-2.2649,-2.2717,-2.2707,-2.2706,-2.2742,-2.2687,-2.2722,-2.2674,-2.2706,-2.2679,-2.2742,-2.2747,-2.2738,-2.273,-2.2743,-2.2744,-2.2752,-2.2742,-2.2709,-2.2708,-2.2707,-2.2706,0,-2.2747,-2.2717,-2.2782,-2.2767,-2.2765,-2.2816,-2.2803,-2.2839,-2.282,-2.2867,-2.2875,-2.2845,-2.2879,-2.2847,-2.2879,-2.2861,-2.2946,-2.2924,-2.2945,-2.2939,-2.3009,-2.3004,-2.3239,-2.3268,-2.3043,-2.3046,-2.3047,0,-2.2852,-2.2898,-2.2888,-2.2909,-2.291,-2.2943,-2.296,-2.2918,-2.2937,-2.2943,-2.2979,-2.3009,-2.303,-2.3088,-2.3069,-2.3093,-2.3072,-2.3153,-2.3075,-2.3088,-2.3074,-2.3072,-2.3077,-2.3169,-2.3172,-2.3174,-2.3176,0,-2.3041,-2.3025,-2.305,-2.3072,-2.3093,-2.3108,-2.3118,-2.3138,-2.3095,-2.312,-2.3155,-2.3171,-2.3205,-2.3235,-2.3254,-2.3251,-2.3207,-2.32,-2.3217,-2.3231,-2.3242,-2.3238,-2.2989,-2.3195,-2.3193,-2.3192,-2.3191,-2.319,-2.3184,-2.3222,-2.3222,-2.3253,-2.3257,-2.3268,-2.3302,-2.3287,-2.3315,-2.3339,-2.3313,-2.3355,-2.3357,-2.3378,-2.3381,-2.3414,-2.3379,-2.3404,-2.341,-2.3417,-2.3428,-2.3237,-2.3417,-2.3416,-2.3416,-2.3415,-2.3415,0,-2.3371,-2.3368,-2.3397,-2.3414,-2.3439,-2.3395,-2.3405,-2.3429,-2.3467,-2.3472,-2.3495,-2.3535,-2.3565,-2.3549,-2.3575,-2.3604,-2.3585,-2.3612,-2.361,-2.361,-2.3456,-2.3439,-2.3628,-2.3628,-2.3628,-2.3628,-2.3628,-2.3628,-2.3471,-2.3534,-2.3518,-2.3583,-2.3579,-2.3621,-2.363,-2.3641,-2.3645,-2.3693,-2.3717,-2.3707,-2.3704,-2.373,-2.3755,-2.375,-2.3762,-2.3797,-2.3785,-2.3642,-2.3621,-2.3601,-2.3585,-2.38,-2.3801,-2.3936,-2.3937,-2.3938]},{"header":{"parameterUnit":"m.s-1","parameterCategory":1,"la1":30.2991,"la2":30.254,"lo1":-89.0895,"lo2":-89.0444,"dy":0.0017,"dx":0.0017,"nx":28,"ny":28,"refTime":"2024-03-10T09:00:00:Z","depth":0,"parameterNumber":3,"parameterNumberName":"V-component_of_WINDS"},"data":[0,0,0,0,0,0,0,0,0,0,0,0,0,0,0,0,0,0,0,0,0,0,0,0,0,0,0,0,0,0,0,0,0,0,0,0,0,0,0,0,0,0,0,0,0,0,0,0,0,0,0,0,0,0,0,0,0,0,1.7659,1.7658,0,1.7603,1.7602,1.7601,1.7598,1.7598,1.7599,1.76,1.7536,1.7533,1.7531,0,0,0,0,0,0,0,0,0,0,0,0,0,1.7757,1.7755,1.7659,1.7658,1.7657,1.7603,1.7602,1.7601,1.7598,1.7598,1.7599,1.76,1.7536,1.7534,1.7531,0,0,0,0,0,0,0,0,0,0,0,0,0,1.7708,1.7754,1.7659,1.7649,1.7648,1.7603,1.7602,1.7601,1.7597,1.7598,1.7599,1.76,1.7537,1.7534,1.753,1.7489,0,0,1.752,1.7518,0,0,0,0,0,0,0,0,1.7711,1.7705,1.7651,1.765,1.7648,1.7608,1.7613,1.7563,1.7597,1.7616,1.76,1.7601,1.7558,1.7553,1.754,1.7486,1.7484,1.7519,1.7517,1.7516,1.7515,0,0,0,0,0,0,0,1.7715,1.7707,1.7636,1.765,1.7648,1.7646,1.764,1.7604,1.7582,1.7615,1.7614,1.7608,1.7558,1.7544,1.7539,1.7483,1.752,1.7516,1.7514,1.7513,1.7392,1.739,0,0,0,0,0,0,1.7721,1.771,1.7638,1.7635,1.7683,1.7643,1.7637,1.762,1.7583,1.7578,1.7607,1.7608,1.7549,1.7543,1.7537,1.7486,1.7516,1.7513,1.7511,1.7393,1.7391,1.739,0,0,0,0,0,0,1.7723,1.7714,1.764,1.7672,1.7663,1.764,1.7622,1.7618,1.7604,1.7577,1.7573,1.7597,1.755,1.7542,1.7502,1.7483,1.7511,1.7508,1.7394,1.7392,1.7391,1.7384,0,0,0,0,0,0,1.7726,1.7715,1.7701,1.7672,1.7661,1.7608,1.7621,1.7616,1.7599,1.76,1.7567,1.7562,1.755,1.7507,1.7498,1.7479,1.7505,1.7396,1.7393,1.7391,1.7385,1.7382,1.7379,0,0,0,0,0,1.7729,1.7699,1.77,1.7691,1.7643,1.7607,1.76,1.7589,1.7598,1.7582,1.7565,1.7563,1.7487,1.7503,1.7493,1.7472,1.7397,1.7394,1.7391,1.7387,1.7382,1.7379,0,0,0,0,0,0,1.7724,1.7695,1.7696,1.7656,1.7634,1.7606,1.7586,1.7585,1.7558,1.7559,1.7544,1.7537,1.7497,1.7481,1.7499,1.7431,1.7443,1.7438,1.7442,1.7438,1.7435,1.7439,1.7502,0,0,0,0,0,1.7718,1.7694,1.7669,1.7637,1.7626,1.7608,1.7592,1.7585,1.7561,1.7551,1.7531,1.7505,1.7476,1.7456,1.7428,1.7384,1.7375,1.7365,1.7362,1.7359,1.7354,1.7329,1.7324,1.7382,1.7382,1.7382,0,0,1.7706,1.7688,1.7672,1.7635,1.7618,1.759,1.76,1.7571,1.755,1.7546,1.7507,1.7492,1.7462,1.742,1.74,1.7405,1.7337,1.7356,1.7354,1.7351,1.7326,1.732,1.7316,1.738,1.738,1.738,0,0,1.767,1.7654,1.7625,1.7608,1.7582,1.757,1.7563,1.7536,1.7526,1.7488,1.7484,1.7458,1.7408,1.7387,1.737,1.7327,1.7324,1.7318,1.73,1.7276,1.7271,1.7267,1.725,1.7244,1.7314,1.7314,1.7314,0,1.7657,1.7618,1.761,1.7581,1.7564,1.7562,1.7531,1.7514,1.7479,1.7467,1.7474,1.7411,1.7391,1.7343,1.7333,1.732,1.731,1.732,1.7273,1.7268,1.7264,1.7248,1.7242,1.7313,1.7313,1.7313,1.7313,0,1.7603,1.7576,1.7555,1.7524,1.7505,1.7475,1.7461,1.7442,1.7438,1.7425,1.7385,1.7362,1.7328,1.7317,1.7311,1.7268,1.7272,1.7276,1.7288,1.7258,1.7243,1.7237,1.7312,1.7312,1.7313,1.7313,0,0,1.7559,1.7526,1.7518,1.7504,1.7475,1.7453,1.7423,1.7393,1.7376,1.7353,1.7326,1.7284,1.7288,1.7268,1.726,1.7239,1.7205,1.7245,1.7244,1.7237,1.7155,1.7151,1.7144,1.7204,1.7203,1.7202,1.7157,0,1.7518,1.7467,1.7459,1.7413,1.7387,1.7386,1.7359,1.7338,1.7326,1.73,1.7286,1.7256,1.7264,1.7252,1.7231,1.7214,1.7188,1.7217,1.7176,1.7175,1.7182,1.7136,1.7132,1.709,1.7151,1.715,1.7149,0,1.7463,1.7441,1.7393,1.7369,1.7357,1.7334,1.7305,1.7282,1.7258,1.725,1.7229,1.7224,1.7191,1.7206,1.7159,1.7179,1.7162,1.7151,1.7149,1.7143,1.7159,1.7127,1.7077,1.707,1.714,1.7141,1.7141,0,1.7435,1.7392,1.7358,1.7346,1.7317,1.7301,1.7287,1.7264,1.7246,1.7221,1.7209,1.7179,1.7162,1.7139,1.7125,1.7137,1.7078,1.7092,1.7069,1.7069,1.7055,1.7055,1.6999,1.7047,1.7047,1.7047,1.7048,0,1.7389,1.7359,1.7345,1.7323,1.729,1.7281,1.7247,1.7234,1.7213,1.7188,1.7185,1.716,1.7145,1.7118,1.7107,1.7069,1.7061,1.7052,1.7049,1.7052,1.7053,1.7039,1.704,1.7046,1.7046,1.7046,1.7047,0,1.735,1.734,1.7302,1.7279,1.7272,1.7248,1.7227,1.7205,1.7194,1.7162,1.7154,1.7135,1.7103,1.7088,1.7048,1.704,1.6996,1.6996,1.7005,1.7004,1.6981,1.6983,1.6912,1.6902,1.6958,1.6958,1.6957,0,1.7321,1.7298,1.7273,1.7257,1.7244,1.7218,1.7201,1.7191,1.7173,1.7144,1.7125,1.7094,1.7068,1.7017,1.6998,1.6967,1.6965,1.6943,1.696,1.6963,1.6963,1.6964,1.696,1.6939,1.6938,1.6938,1.6937,0,1.7269,1.7265,1.7242,1.7216,1.7196,1.7175,1.7154,1.714,1.7127,1.7106,1.7075,1.7055,1.7016,1.6984,1.6952,1.6936,1.6933,1.6933,1.6925,1.6926,1.6932,1.6927,1.6995,1.6934,1.6934,1.6934,1.6934,1.6935,1.7233,1.7213,1.7192,1.7166,1.715,1.713,1.7109,1.7096,1.7071,1.7039,1.7035,1.7001,1.6976,1.6934,1.6917,1.6889,1.6894,1.6884,1.6881,1.6878,1.6876,1.6938,1.6884,1.6884,1.6884,1.6884,1.6884,0,1.718,1.7167,1.7143,1.7115,1.7094,1.7097,1.7074,1.7055,1.7027,1.7006,1.6981,1.6945,1.6914,1.6894,1.6863,1.6844,1.6842,1.6836,1.6836,1.6832,1.6874,1.6883,1.6838,1.6838,1.6838,1.6838,1.6838,1.6838,1.7149,1.7115,1.7109,1.7066,1.7053,1.7022,1.7009,1.699,1.6974,1.6934,1.691,1.6898,1.6876,1.6844,1.6815,1.681,1.6797,1.6791,1.6785,1.6824,1.6829,1.6834,1.6842,1.6789,1.6789,1.6745,1.6745,1.6744]}]]